NORTHEAST SUFFOLK  -  Winter Weather Advisory Winter Weather Advisory        NORTHERN NASSAU  -  Winter Weather Advisory Winter Weather Advisory        NORTHWEST SUFFOLK  -  Winter Weather Advisory Winter Weather Advisory        SOUTHEAST SUFFOLK  -  Winter Weather Advisory Winter Weather Advisory        SOUTHERN NASSAU  -  Winter Weather Advisory Winter Weather Advisory        SOUTHWEST SUFFOLK  -  Winter Weather Advisory Winter Weather Advisory      

Active alerts

Northern Nassau
  Details for Northern Nassau Winter Weather Advisory
Southern Nassau
  Details for Southern Nassau Winter Weather Advisory
Northwest Suffolk
  Details for Northwest Suffolk Winter Weather Advisory
Southwest Suffolk
  Details for Southwest Suffolk Winter Weather Advisory
Northeast Suffolk
  Details for Northeast Suffolk Winter Weather Advisory
Southeast Suffolk
  Details for Southeast Suffolk Winter Weather Advisory


WXM80 ListenWXM80 Stop

You find our weather info also at:

UK Metoffice

WeatherCloud

Weather Underground

Northeastern Weather Network

AWEKAS

Citizen Weather Observer Program (CWOP)

HAMweather, WeatherForYou, PWS Weather


Weather Underground History page Text

Daily Summary for September 5, 2017 Units:  English    Metric   Both
« Previous Day
Next Day »
Daily Weekly Monthly Yearly Custom
  High: Low: Average:
Temperature: 86.1 °F 69.0 °F 75.5 °F
Dew Point: 73.7 °F 64.6 °F 69.2 °F
Humidity: 93 % 63 % 82 %
Wind Speed: 7.0 mph 0.0 mph 1.7 mph
Wind Gust: 18.0 mph - -
Wind:- - SSW
Pressure: 29.80 in 29.67 in -
Precipitation: 0.00 in    
Historical Graphs
 
 
Tabular Data for September 5, 2017
Time Temperature Dew Point Pressure Wind Wind Speed Wind Gust Humidity Rainfall Rate (Hourly)
00:00 69.0 °F 64.6 °F 29.80 in SSE 0.4 mph 3.5 mph 86 % 0.00 in
00:05 69.0 °F 64.6 °F 29.79 in South 1.2 mph 3.5 mph 86 % 0.00 in
00:10 69.0 °F 64.6 °F 29.79 in SW 1.7 mph 3.5 mph 86 % 0.00 in
00:15 69.0 °F 64.6 °F 29.79 in South 0.3 mph 2.3 mph 86 % 0.00 in
00:20 69.0 °F 64.6 °F 29.79 in SSE 0.4 mph 1.2 mph 86 % 0.00 in
00:25 69.1 °F 64.7 °F 29.79 in South 0.4 mph 3.5 mph 86 % 0.00 in
00:30 69.1 °F 64.7 °F 29.79 in SE 1.5 mph 3.5 mph 86 % 0.00 in
00:35 69.1 °F 65.1 °F 29.79 in South 1.4 mph 3.5 mph 87 % 0.00 in
00:40 69.1 °F 65.1 °F 29.79 in South 0.9 mph 3.5 mph 87 % 0.00 in
00:45 69.2 °F 65.2 °F 29.79 in South 2.2 mph 3.0 mph 87 % 0.00 in
00:50 69.2 °F 65.2 °F 29.79 in SSE 1.0 mph 3.0 mph 87 % 0.00 in
00:55 69.3 °F 65.3 °F 29.79 in SSE 1.1 mph 3.5 mph 87 % 0.00 in
01:00 69.3 °F 65.3 °F 29.79 in SSW 1.4 mph 4.6 mph 87 % 0.00 in
01:06 69.3 °F 65.3 °F 29.79 in SSW 1.0 mph 5.0 mph 87 % 0.00 in
01:11 69.3 °F 65.3 °F 29.79 in SSW 1.0 mph 4.0 mph 87 % 0.00 in
01:16 69.3 °F 65.3 °F 29.78 in South 1.0 mph 4.0 mph 87 % 0.00 in
01:21 69.3 °F 65.3 °F 29.78 in SSW 1.4 mph 3.5 mph 87 % 0.00 in
01:26 69.3 °F 65.3 °F 29.78 in SSW 1.0 mph 7.0 mph 87 % 0.00 in
01:31 69.3 °F 65.3 °F 29.78 in SSW 1.0 mph 5.0 mph 87 % 0.00 in
01:35 69.3 °F 65.3 °F 29.78 in SSW 2.7 mph 3.5 mph 87 % 0.00 in
01:41 69.4 °F 65.4 °F 29.78 in SSW 1.0 mph 4.0 mph 87 % 0.00 in
01:46 69.4 °F 65.7 °F 29.77 in South 1.0 mph 5.8 mph 88 % 0.00 in
01:51 69.5 °F 65.8 °F 29.77 in South 1.0 mph 5.0 mph 88 % 0.00 in
01:56 69.6 °F 65.9 °F 29.77 in South 1.0 mph 4.0 mph 88 % 0.00 in
02:01 69.7 °F 66.0 °F 29.77 in SSW 0.4 mph 3.5 mph 88 % 0.00 in
02:06 69.7 °F 66.3 °F 29.77 in SSW 2.0 mph 5.0 mph 89 % 0.00 in
02:11 69.7 °F 66.3 °F 29.78 in South 1.0 mph 5.0 mph 89 % 0.00 in
02:14 69.7 °F 66.3 °F 29.78 in SSW 1.5 mph 5.8 mph 89 % 0.00 in
02:19 69.7 °F 66.6 °F 29.78 in SSE 2.8 mph 6.0 mph 90 % 0.00 in
02:24 69.8 °F 66.7 °F 29.77 in South 2.3 mph 3.5 mph 90 % 0.00 in
02:29 69.8 °F 66.7 °F 29.77 in SSW 0.9 mph 3.5 mph 90 % 0.00 in
02:35 69.9 °F 66.8 °F 29.77 in ESE 1.8 mph 3.5 mph 90 % 0.00 in
02:40 69.9 °F 66.8 °F 29.77 in ESE 1.3 mph 3.5 mph 90 % 0.00 in
02:45 70.0 °F 67.3 °F 29.77 in SSE 3.0 mph 11.5 mph 91 % 0.00 in
02:50 70.0 °F 66.9 °F 29.77 in South 1.5 mph 3.5 mph 90 % 0.00 in
02:55 70.0 °F 67.3 °F 29.76 in South 1.2 mph 3.5 mph 91 % 0.00 in
03:00 70.1 °F 67.3 °F 29.76 in SW 3.8 mph 11.5 mph 91 % 0.00 in
03:05 70.1 °F 67.3 °F 29.76 in South 0.3 mph 2.3 mph 91 % 0.00 in
03:10 70.1 °F 67.3 °F 29.76 in SSE 2.4 mph 4.0 mph 91 % 0.00 in
03:15 70.1 °F 67.3 °F 29.76 in NW 3.0 mph 4.6 mph 91 % 0.00 in
03:20 70.2 °F 67.4 °F 29.76 in SSW 2.8 mph 9.2 mph 91 % 0.00 in
03:25 70.2 °F 67.4 °F 29.76 in SSW 1.7 mph 3.5 mph 91 % 0.00 in
03:30 70.2 °F 67.4 °F 29.76 in SSW 1.6 mph 3.5 mph 91 % 0.00 in
03:35 70.2 °F 67.4 °F 29.76 in SSW 2.8 mph 5.8 mph 91 % 0.00 in
03:36 70.2 °F 67.4 °F 29.76 in SSW 2.5 mph 6.9 mph 91 % 0.00 in
03:41 70.2 °F 67.4 °F 29.76 in SSW 2.9 mph 10.4 mph 91 % 0.00 in
03:46 70.2 °F 67.8 °F 29.76 in SSW 1.9 mph 6.9 mph 92 % 0.00 in
03:51 70.3 °F 67.9 °F 29.76 in SSW 0.9 mph 4.0 mph 92 % 0.00 in
03:56 70.2 °F 67.8 °F 29.76 in WSW 1.8 mph 4.6 mph 92 % 0.00 in
04:01 70.3 °F 67.9 °F 29.76 in SSW 2.3 mph 5.8 mph 92 % 0.00 in
04:06 70.2 °F 67.8 °F 29.76 in SW 1.7 mph 3.5 mph 92 % 0.00 in
04:11 70.2 °F 67.8 °F 29.75 in SW 2.4 mph 4.6 mph 92 % 0.00 in
04:16 70.2 °F 67.8 °F 29.75 in SSW 2.5 mph 4.0 mph 92 % 0.00 in
04:21 70.2 °F 67.8 °F 29.76 in SSW 1.2 mph 3.5 mph 92 % 0.00 in
04:26 70.2 °F 67.8 °F 29.75 in NNE 3.7 mph 6.9 mph 92 % 0.00 in
04:31 70.2 °F 67.8 °F 29.75 in SSW 2.1 mph 3.5 mph 92 % 0.00 in
04:36 70.3 °F 67.9 °F 29.75 in SSW 2.6 mph 3.5 mph 92 % 0.00 in
04:41 70.3 °F 67.9 °F 29.75 in SSW 3.1 mph 3.5 mph 92 % 0.00 in
04:46 70.3 °F 67.9 °F 29.75 in SSW 1.8 mph 5.0 mph 92 % 0.00 in
04:51 70.3 °F 67.9 °F 29.75 in SSW 2.1 mph 3.5 mph 92 % 0.00 in
04:56 70.3 °F 67.9 °F 29.75 in SSW 3.2 mph 6.9 mph 92 % 0.00 in
05:01 70.3 °F 67.9 °F 29.75 in SW 4.9 mph 9.2 mph 92 % 0.00 in
05:06 70.3 °F 67.9 °F 29.75 in South 3.1 mph 6.9 mph 92 % 0.00 in
05:11 70.3 °F 67.9 °F 29.75 in SW 2.3 mph 4.6 mph 92 % 0.00 in
05:16 70.2 °F 67.8 °F 29.75 in SSW 1.0 mph 3.5 mph 92 % 0.00 in
05:21 70.2 °F 67.8 °F 29.75 in West 1.2 mph 3.5 mph 92 % 0.00 in
05:26 70.1 °F 67.7 °F 29.76 in Calm   3.5 mph 92 % 0.00 in
05:30 70.1 °F 67.7 °F 29.76 in WSW 1.8 mph 5.8 mph 92 % 0.00 in
05:35 70.1 °F 67.7 °F 29.76 in WSW 0.9 mph 3.5 mph 92 % 0.00 in
05:40 70.0 °F 67.6 °F 29.76 in WSW 0.1 mph 1.2 mph 92 % 0.00 in
05:50 70.0 °F 67.6 °F 29.76 in WSW 1.1 mph 2.3 mph 92 % 0.00 in
05:55 69.9 °F 67.5 °F 29.76 in Calm   4.6 mph 92 % 0.00 in
06:00 69.9 °F 67.5 °F 29.76 in SW 1.4 mph 2.3 mph 92 % 0.00 in
06:05 69.9 °F 67.5 °F 29.77 in SW 2.1 mph 3.5 mph 92 % 0.00 in
06:10 69.8 °F 67.4 °F 29.76 in WSW 0.5 mph 3.5 mph 92 % 0.00 in
06:15 69.8 °F 67.4 °F 29.76 in Calm   2.0 mph 92 % 0.00 in
06:20 69.7 °F 67.3 °F 29.76 in SW 1.0 mph 3.0 mph 92 % 0.00 in
06:31 69.6 °F 67.2 °F 29.77 in SW 1.0 mph 4.0 mph 92 % 0.00 in
06:35 69.6 °F 67.2 °F 29.77 in Calm   4.0 mph 92 % 0.00 in
06:40 69.6 °F 67.5 °F 29.77 in Calm   1.0 mph 93 % 0.00 in
06:45 69.6 °F 67.5 °F 29.77 in Calm   3.0 mph 93 % 0.00 in
06:50 69.6 °F 67.5 °F 29.77 in Calm   2.0 mph 93 % 0.00 in
06:55 69.6 °F 67.5 °F 29.76 in SW 0.4 mph 2.3 mph 93 % 0.00 in
07:00 69.6 °F 67.5 °F 29.76 in SW 0.8 mph 3.5 mph 93 % 0.00 in
07:05 69.6 °F 67.5 °F 29.76 in SW 1.0 mph 4.0 mph 93 % 0.00 in
07:11 69.7 °F 67.6 °F 29.76 in SW 2.0 mph 6.0 mph 93 % 0.00 in
07:16 69.7 °F 67.6 °F 29.76 in SW 1.0 mph 8.0 mph 93 % 0.00 in
07:21 69.7 °F 67.6 °F 29.76 in SW 2.0 mph 4.0 mph 93 % 0.00 in
07:26 69.8 °F 67.4 °F 29.76 in SW 2.0 mph 4.0 mph 92 % 0.00 in
07:30 69.8 °F 67.4 °F 29.76 in SW 2.0 mph 7.0 mph 92 % 0.00 in
07:35 69.9 °F 67.5 °F 29.76 in SW 2.0 mph 4.0 mph 92 % 0.00 in
07:41 70.0 °F 67.6 °F 29.76 in SW 2.0 mph 7.0 mph 92 % 0.00 in
07:46 70.1 °F 67.7 °F 29.76 in SW 1.7 mph 2.3 mph 92 % 0.00 in
07:51 70.3 °F 67.9 °F 29.76 in SW 3.0 mph 6.0 mph 92 % 0.00 in
07:56 70.4 °F 68.0 °F 29.76 in SSW 1.0 mph 6.0 mph 92 % 0.00 in
08:01 70.6 °F 68.2 °F 29.77 in SSE 0.5 mph 3.5 mph 92 % 0.00 in
08:06 70.8 °F 68.0 °F 29.76 in SW 3.1 mph 6.9 mph 91 % 0.00 in
08:11 71.0 °F 68.2 °F 29.76 in SSW 4.8 mph 8.1 mph 91 % 0.00 in
08:16 71.3 °F 68.2 °F 29.76 in SW 4.7 mph 6.0 mph 90 % 0.00 in
08:21 71.5 °F 68.4 °F 29.76 in SW 3.8 mph 6.9 mph 90 % 0.00 in
08:26 71.7 °F 68.3 °F 29.76 in SSW 3.0 mph 6.0 mph 89 % 0.00 in
08:31 71.9 °F 68.2 °F 29.76 in SW 1.7 mph 4.6 mph 88 % 0.00 in
08:36 72.2 °F 68.4 °F 29.76 in WSW 1.6 mph 6.0 mph 88 % 0.00 in
08:41 72.4 °F 68.6 °F 29.76 in SW 2.5 mph 3.5 mph 88 % 0.00 in
08:46 72.7 °F 68.9 °F 29.76 in SSW 1.9 mph 3.5 mph 88 % 0.00 in
08:52 72.9 °F 68.8 °F 29.76 in WSW 1.4 mph 5.8 mph 87 % 0.00 in
08:57 73.2 °F 69.1 °F 29.76 in WSW 0.5 mph 4.6 mph 87 % 0.00 in
09:02 73.4 °F 69.3 °F 29.76 in SW 0.1 mph 3.5 mph 87 % 0.00 in
09:07 73.7 °F 69.2 °F 29.76 in SW 3.0 mph 3.5 mph 86 % 0.00 in
09:12 73.9 °F 69.1 °F 29.76 in SW 1.4 mph 3.5 mph 85 % 0.00 in
09:17 74.1 °F 69.6 °F 29.76 in WSW 0.4 mph 3.5 mph 86 % 0.00 in
09:22 74.3 °F 69.5 °F 29.76 in SW 1.0 mph 3.5 mph 85 % 0.00 in
09:27 74.6 °F 69.4 °F 29.76 in SW 0.9 mph 3.5 mph 84 % 0.00 in
09:32 74.7 °F 69.5 °F 29.76 in West 2.2 mph 3.5 mph 84 % 0.00 in
09:37 75.0 °F 69.8 °F 29.76 in SSW 2.2 mph 4.6 mph 84 % 0.00 in
09:42 75.3 °F 69.8 °F 29.77 in WSW 0.7 mph 4.6 mph 83 % 0.00 in
09:47 75.8 °F 70.3 °F 29.77 in Calm   1.2 mph 83 % 0.00 in
09:52 76.6 °F 70.0 °F 29.76 in SSW 0.5 mph 3.5 mph 80 % 0.00 in
09:57 77.3 °F 70.6 °F 29.76 in Calm   1.2 mph 80 % 0.00 in
10:02 77.7 °F 70.3 °F 29.76 in ESE 0.3 mph 2.3 mph 78 % 0.00 in
10:07 78.1 °F 70.7 °F 29.76 in WSW 0.8 mph 2.0 mph 78 % 0.00 in
10:12 78.3 °F 70.5 °F 29.76 in SW 1.4 mph 3.5 mph 77 % 0.00 in
10:17 78.4 °F 70.6 °F 29.76 in SW 1.1 mph 3.5 mph 77 % 0.00 in
10:22 78.5 °F 70.3 °F 29.76 in SW 1.5 mph 4.0 mph 76 % 0.00 in
10:27 78.5 °F 69.9 °F 29.76 in SW 1.8 mph 3.5 mph 75 % 0.00 in
10:32 78.6 °F 70.4 °F 29.75 in WSW 3.8 mph 4.6 mph 76 % 0.00 in
10:37 78.7 °F 70.5 °F 29.75 in SE 0.5 mph 5.8 mph 76 % 0.00 in
10:43 78.8 °F 70.6 °F 29.75 in SSE 2.2 mph 4.6 mph 76 % 0.00 in
10:48 78.9 °F 70.7 °F 29.76 in East 1.0 mph 3.5 mph 76 % 0.00 in
10:53 79.1 °F 70.5 °F 29.75 in WSW 3.3 mph 8.1 mph 75 % 0.00 in
10:58 79.5 °F 70.9 °F 29.75 in SE 0.8 mph 3.5 mph 75 % 0.00 in
11:03 80.0 °F 71.0 °F 29.75 in WSW 3.5 mph 5.8 mph 74 % 0.00 in
11:08 80.6 °F 71.1 °F 29.75 in South 2.6 mph 4.0 mph 73 % 0.00 in
11:13 81.2 °F 71.3 °F 29.75 in South 1.0 mph 3.5 mph 72 % 0.00 in
11:18 81.9 °F 71.2 °F 29.75 in SSE 1.0 mph 3.5 mph 70 % 0.00 in
11:23 82.4 °F 71.2 °F 29.75 in SSW 0.3 mph 2.3 mph 69 % 0.00 in
11:28 82.9 °F 71.7 °F 29.75 in South 0.2 mph 1.2 mph 69 % 0.00 in
11:33 83.4 °F 71.7 °F 29.75 in SW 0.9 mph 4.0 mph 68 % 0.00 in
11:38 83.9 °F 72.6 °F 29.75 in South 2.3 mph 5.8 mph 69 % 0.00 in
11:43 84.4 °F 72.2 °F 29.75 in SE 1.2 mph 4.6 mph 67 % 0.00 in
11:48 85.0 °F 71.9 °F 29.75 in SE 1.0 mph 3.5 mph 65 % 0.00 in
11:53 85.0 °F 71.5 °F 29.75 in SSE 3.9 mph 6.9 mph 64 % 0.00 in
11:58 84.8 °F 71.3 °F 29.75 in SE 4.1 mph 8.1 mph 64 % 0.00 in
12:03 84.6 °F 72.0 °F 29.74 in SSW 1.7 mph 5.8 mph 66 % 0.00 in
12:08 84.9 °F 71.4 °F 29.74 in SE 1.6 mph 6.9 mph 64 % 0.00 in
12:13 84.8 °F 71.3 °F 29.74 in SSW 3.4 mph 6.9 mph 64 % 0.00 in
12:18 85.0 °F 73.7 °F 29.74 in SW 1.1 mph 3.5 mph 69 % 0.00 in
12:23 85.4 °F 72.3 °F 29.73 in South 0.7 mph 4.6 mph 65 % 0.00 in
12:28 85.8 °F 73.1 °F 29.73 in SSW 2.5 mph 3.0 mph 66 % 0.00 in
12:33 86.1 °F 72.5 °F 29.73 in SSE 1.1 mph 5.0 mph 64 % 0.00 in
12:38 85.6 °F 71.6 °F 29.73 in SE 0.9 mph 3.5 mph 63 % 0.00 in
12:43 85.2 °F 71.6 °F 29.73 in SE 4.8 mph 11.0 mph 64 % 0.00 in
12:44 85.2 °F 71.6 °F 29.73 in SSE 4.5 mph 11.5 mph 64 % 0.00 in
12:49 84.8 °F 72.2 °F 29.73 in SE 4.3 mph 7.0 mph 66 % 0.00 in
12:54 84.0 °F 71.4 °F 29.72 in SSE 3.7 mph 8.1 mph 66 % 0.00 in
12:59 84.0 °F 73.2 °F 29.72 in South 1.9 mph 3.5 mph 70 % 0.00 in
13:04 84.2 °F 71.6 °F 29.72 in South 2.0 mph 5.8 mph 66 % 0.00 in
13:09 83.9 °F 71.8 °F 29.72 in South 2.2 mph 4.6 mph 67 % 0.00 in
13:14 84.0 °F 72.7 °F 29.72 in SSW 1.8 mph 3.5 mph 69 % 0.00 in
13:19 84.3 °F 71.7 °F 29.72 in SSE 1.6 mph 5.8 mph 66 % 0.00 in
13:24 84.7 °F 72.5 °F 29.72 in South 1.1 mph 3.5 mph 67 % 0.00 in
13:29 85.0 °F 72.4 °F 29.72 in South 0.8 mph 3.0 mph 66 % 0.00 in
13:34 85.2 °F 73.4 °F 29.72 in SSW 1.0 mph 3.5 mph 68 % 0.00 in
13:40 85.0 °F 72.4 °F 29.72 in SSW 2.6 mph 3.5 mph 66 % 0.00 in
13:45 85.0 °F 71.9 °F 29.72 in SE 1.1 mph 6.9 mph 65 % 0.00 in
13:50 84.7 °F 71.6 °F 29.72 in SSW 1.1 mph 5.8 mph 65 % 0.00 in
13:55 84.5 °F 71.9 °F 29.71 in South 1.0 mph 3.5 mph 66 % 0.00 in
14:00 84.6 °F 72.4 °F 29.71 in ESE 1.2 mph 4.0 mph 67 % 0.00 in
14:05 84.7 °F 72.1 °F 29.71 in SSW 2.2 mph 5.0 mph 66 % 0.00 in
14:10 84.4 °F 71.8 °F 29.70 in South 3.1 mph 8.1 mph 66 % 0.00 in
14:15 84.3 °F 71.7 °F 29.70 in SE 2.8 mph 6.9 mph 66 % 0.00 in
14:20 84.2 °F 71.6 °F 29.70 in WSW 2.2 mph 6.0 mph 66 % 0.00 in
14:25 84.3 °F 72.1 °F 29.70 in SSE 0.9 mph 3.5 mph 67 % 0.00 in
14:30 84.4 °F 72.2 °F 29.70 in SE 1.7 mph 6.9 mph 67 % 0.00 in
14:35 84.5 °F 72.8 °F 29.69 in SSE 1.9 mph 8.1 mph 68 % 0.00 in
14:40 84.3 °F 71.7 °F 29.69 in SW 3.5 mph 10.4 mph 66 % 0.00 in
14:45 84.0 °F 71.9 °F 29.69 in SE 1.8 mph 11.5 mph 67 % 0.00 in
14:50 84.0 °F 72.7 °F 29.69 in SSW 1.6 mph 5.8 mph 69 % 0.00 in
14:55 84.3 °F 72.6 °F 29.68 in South 0.7 mph 5.8 mph 68 % 0.00 in
15:00 84.5 °F 72.8 °F 29.69 in SSW 2.6 mph 5.8 mph 68 % 0.00 in
15:05 84.8 °F 73.1 °F 29.69 in SSW 3.4 mph 4.6 mph 68 % 0.00 in
15:10 85.1 °F 73.3 °F 29.68 in SSE 3.8 mph 5.0 mph 68 % 0.00 in
15:15 85.3 °F 72.6 °F 29.69 in SW 2.3 mph 4.6 mph 66 % 0.00 in
15:20 85.4 °F 72.7 °F 29.69 in South 4.1 mph 6.9 mph 66 % 0.00 in
15:26 85.4 °F 72.3 °F 29.69 in SSE 3.5 mph 9.2 mph 65 % 0.00 in
15:31 85.2 °F 72.1 °F 29.69 in SSW 2.0 mph 8.0 mph 65 % 0.00 in
15:36 85.0 °F 71.9 °F 29.69 in South 2.0 mph 8.0 mph 65 % 0.00 in
15:41 84.7 °F 71.6 °F 29.69 in South 2.0 mph 6.0 mph 65 % 0.00 in
15:46 84.2 °F 71.6 °F 29.69 in South 1.0 mph 7.0 mph 66 % 0.00 in
15:51 84.1 °F 72.0 °F 29.69 in SSE 2.0 mph 8.0 mph 67 % 0.00 in
15:56 83.9 °F 71.3 °F 29.69 in SSE 2.0 mph 5.0 mph 66 % 0.00 in
16:01 83.4 °F 71.3 °F 29.69 in SSE 3.0 mph 6.9 mph 67 % 0.00 in
16:06 83.4 °F 71.3 °F 29.69 in South 3.1 mph 4.0 mph 67 % 0.00 in
16:11 83.3 °F 71.6 °F 29.69 in SSW 2.0 mph 8.1 mph 68 % 0.00 in
16:16 83.2 °F 71.5 °F 29.69 in SE 4.3 mph 7.0 mph 68 % 0.00 in
16:21 83.0 °F 70.9 °F 29.69 in SE 4.1 mph 9.2 mph 67 % 0.00 in
16:26 82.9 °F 71.3 °F 29.68 in SSW 1.9 mph 3.5 mph 68 % 0.00 in
16:31 83.0 °F 71.3 °F 29.68 in SE 1.6 mph 5.8 mph 68 % 0.00 in
16:36 82.9 °F 71.3 °F 29.68 in South 0.6 mph 2.3 mph 68 % 0.00 in
16:41 82.7 °F 71.5 °F 29.68 in SSE 1.0 mph 3.0 mph 69 % 0.00 in
16:46 82.4 °F 70.8 °F 29.68 in SSE 2.0 mph 11.5 mph 68 % 0.00 in
16:51 82.1 °F 70.9 °F 29.68 in SSW 2.9 mph 6.9 mph 69 % 0.00 in
16:56 82.1 °F 70.9 °F 29.68 in SSE 0.4 mph 2.3 mph 69 % 0.00 in
17:01 82.0 °F 71.2 °F 29.67 in South 2.4 mph 8.1 mph 70 % 0.00 in
17:06 81.8 °F 71.1 °F 29.67 in South 4.5 mph 9.2 mph 70 % 0.00 in
17:11 81.6 °F 70.9 °F 29.67 in West 1.9 mph 3.5 mph 70 % 0.00 in
17:16 81.4 °F 70.7 °F 29.67 in SSW 4.2 mph 7.0 mph 70 % 0.00 in
17:21 81.0 °F 70.3 °F 29.67 in SE 2.0 mph 8.1 mph 70 % 0.00 in
17:26 80.7 °F 70.4 °F 29.67 in South 3.6 mph 8.1 mph 71 % 0.00 in
17:32 80.5 °F 70.6 °F 29.67 in SSW 2.7 mph 6.9 mph 72 % 0.00 in
17:37 80.3 °F 70.4 °F 29.68 in SSW 4.3 mph 9.2 mph 72 % 0.00 in
17:42 80.0 °F 70.2 °F 29.68 in SSW 2.3 mph 9.2 mph 72 % 0.00 in
17:47 79.9 °F 70.5 °F 29.68 in SSE 0.8 mph 4.6 mph 73 % 0.00 in
17:52 79.6 °F 70.2 °F 29.69 in SSW 3.9 mph 6.9 mph 73 % 0.00 in
17:57 79.4 °F 70.0 °F 29.69 in SSE 2.6 mph 9.2 mph 73 % 0.00 in
18:02 79.2 °F 70.2 °F 29.69 in South 3.3 mph 11.5 mph 74 % 0.00 in
18:07 79.0 °F 70.4 °F 29.69 in SE 2.1 mph 3.5 mph 75 % 0.00 in
18:12 78.7 °F 70.1 °F 29.69 in South 2.9 mph 5.0 mph 75 % 0.00 in
18:17 78.4 °F 70.2 °F 29.70 in SSW 2.5 mph 5.8 mph 76 % 0.00 in
18:22 78.2 °F 70.4 °F 29.70 in SE 3.5 mph 12.7 mph 77 % 0.00 in
18:27 77.9 °F 70.1 °F 29.71 in SSW 2.5 mph 5.0 mph 77 % 0.00 in
18:32 77.6 °F 70.2 °F 29.71 in SE 2.0 mph 4.6 mph 78 % 0.00 in
18:37 77.3 °F 70.3 °F 29.71 in SSW 1.4 mph 5.8 mph 79 % 0.00 in
18:42 77.0 °F 70.4 °F 29.71 in SSW 1.5 mph 3.5 mph 80 % 0.00 in
18:47 76.8 °F 70.5 °F 29.71 in South 0.2 mph 3.5 mph 81 % 0.00 in
18:57 76.4 °F 70.5 °F 29.71 in SSW 2.2 mph 3.5 mph 82 % 0.00 in
19:02 76.2 °F 70.7 °F 29.71 in ESE 2.1 mph 3.5 mph 83 % 0.00 in
19:07 75.9 °F 70.4 °F 29.71 in SSW 1.5 mph 4.6 mph 83 % 0.00 in
19:12 75.7 °F 70.5 °F 29.71 in SSE 2.4 mph 10.4 mph 84 % 0.00 in
19:17 75.5 °F 70.3 °F 29.70 in South 0.7 mph 5.8 mph 84 % 0.00 in
19:22 75.3 °F 70.1 °F 29.71 in South 1.8 mph 6.9 mph 84 % 0.00 in
19:27 75.2 °F 70.0 °F 29.71 in SE 3.1 mph 5.0 mph 84 % 0.00 in
19:32 75.1 °F 69.9 °F 29.71 in SSW 3.1 mph 6.9 mph 84 % 0.00 in
19:37 74.9 °F 70.1 °F 29.71 in SSE 0.4 mph 4.6 mph 85 % 0.00 in
19:42 74.9 °F 70.1 °F 29.72 in South 2.5 mph 4.6 mph 85 % 0.00 in
19:47 74.8 °F 70.0 °F 29.72 in SSE 1.9 mph 4.6 mph 85 % 0.00 in
19:52 74.8 °F 70.0 °F 29.73 in SW 2.5 mph 4.6 mph 85 % 0.00 in
19:57 74.8 °F 70.0 °F 29.73 in SSE 0.6 mph 3.5 mph 85 % 0.00 in
20:02 74.8 °F 70.0 °F 29.73 in South 1.0 mph 3.5 mph 85 % 0.00 in
20:07 74.8 °F 70.0 °F 29.73 in SSW 2.2 mph 5.0 mph 85 % 0.00 in
20:12 74.8 °F 70.0 °F 29.73 in ESE 2.1 mph 9.2 mph 85 % 0.00 in
20:17 74.8 °F 70.3 °F 29.73 in SSW 2.2 mph 5.8 mph 86 % 0.00 in
20:22 74.8 °F 70.3 °F 29.74 in SSW 1.7 mph 3.5 mph 86 % 0.00 in
20:25 74.8 °F 70.3 °F 29.74 in South 1.4 mph 2.3 mph 86 % 0.00 in
20:30 74.8 °F 70.3 °F 29.74 in SE 0.9 mph 4.6 mph 86 % 0.00 in
20:35 74.7 °F 70.6 °F 29.74 in SSW 2.1 mph 3.5 mph 87 % 0.00 in
20:41 74.7 °F 70.5 °F 29.74 in South 1.0 mph 4.0 mph 87 % 0.00 in
20:46 74.6 °F 70.5 °F 29.75 in SSW 1.1 mph 3.5 mph 87 % 0.00 in
20:51 74.6 °F 70.8 °F 29.76 in South 1.0 mph 10.0 mph 88 % 0.00 in
20:56 74.6 °F 70.8 °F 29.77 in SSW 7.0 mph 18.0 mph 88 % 0.00 in
21:01 74.6 °F 70.8 °F 29.77 in SSW 5.9 mph 11.5 mph 88 % 0.00 in
21:06 74.5 °F 70.0 °F 29.78 in WSW 6.9 mph 12.7 mph 86 % 0.00 in
21:11 74.4 °F 69.6 °F 29.78 in SSW 1.2 mph 6.9 mph 85 % 0.00 in
21:16 74.3 °F 69.1 °F 29.78 in West 0.3 mph 4.6 mph 84 % 0.00 in
21:21 74.2 °F 69.1 °F 29.78 in West 0.1 mph   84 % 0.00 in
21:26 74.2 °F 69.1 °F 29.78 in Calm     84 % 0.00 in
21:31 74.0 °F 68.9 °F 29.77 in WNW 0.9 mph 3.5 mph 84 % 0.00 in
21:36 73.8 °F 68.7 °F 29.77 in Calm     84 % 0.00 in
21:41 73.6 °F 68.5 °F 29.77 in Calm     84 % 0.00 in
21:46 73.4 °F 68.6 °F 29.77 in Calm     85 % 0.00 in
21:51 73.2 °F 68.8 °F 29.77 in Calm     86 % 0.00 in
21:56 73.0 °F 68.6 °F 29.77 in Calm     86 % 0.00 in
22:01 72.7 °F 68.3 °F 29.78 in Calm     86 % 0.00 in
22:06 72.6 °F 68.2 °F 29.78 in Calm   1.2 mph 86 % 0.00 in
22:11 72.4 °F 68.0 °F 29.78 in Calm     86 % 0.00 in
22:16 72.2 °F 67.8 °F 29.78 in Calm     86 % 0.00 in
22:21 72.0 °F 67.6 °F 29.78 in Calm     86 % 0.00 in
22:26 71.8 °F 67.4 °F 29.78 in Calm     86 % 0.00 in
22:31 71.6 °F 67.5 °F 29.78 in Calm     87 % 0.00 in
22:36 71.5 °F 67.4 °F 29.77 in Calm     87 % 0.00 in
22:41 71.3 °F 67.6 °F 29.78 in WNW 0.1 mph 1.2 mph 88 % 0.00 in
22:46 71.1 °F 67.4 °F 29.77 in Calm     88 % 0.00 in
22:51 71.0 °F 67.3 °F 29.78 in Calm     88 % 0.00 in
22:56 70.8 °F 67.1 °F 29.78 in Calm     88 % 0.00 in
23:01 70.7 °F 67.0 °F 29.78 in Calm     88 % 0.00 in
23:06 70.6 °F 67.2 °F 29.78 in Calm     89 % 0.00 in
23:12 70.5 °F 67.1 °F 29.78 in Calm     89 % 0.00 in
23:17 70.4 °F 67.0 °F 29.78 in WNW 0.2 mph 1.2 mph 89 % 0.00 in
23:21 70.3 °F 66.9 °F 29.78 in Calm   2.3 mph 89 % 0.00 in
23:27 70.2 °F 67.1 °F 29.78 in Calm     90 % 0.00 in
23:32 70.2 °F 67.1 °F 29.78 in Calm     90 % 0.00 in
23:37 70.2 °F 67.1 °F 29.77 in Calm     90 % 0.00 in
23:42 70.1 °F 67.3 °F 29.78 in Calm     91 % 0.00 in
23:47 70.1 °F 67.3 °F 29.77 in WNW 0.4 mph 1.2 mph 91 % 0.00 in
23:52 70.1 °F 67.3 °F 29.77 in Calm     91 % 0.00 in
23:57 70.0 °F 67.3 °F 29.77 in Calm     91 % 0.00 in
Crab Meadow Weather
Compliments of Weather Underground - 3 mb

Script developed by  Jim McMurry - jmcmurry@mwt.net Adapted for the template by  Wim van der Kuil - Leuven-Template.eu

Clouds: Mostly Cloudy or Considerable Cloudiness indicate about 75 percent cloud coverage.